CAPE
1027 1003 788 518 530 507 519 513 506 518 638 690 695 678 644 610 569 501 708 678 673 651 580 464 716 1270 1515 1518 1497 1568 1598 1694 1494 1288 1269 1191 1206 1241 1443 1587 1683 1710 1678 1679 1924 2033 1996 1997 2360 2704 2960 3101 3077 2937 2829 2788 3100 3233 3076 3455 3616 3018 2549
1012 980 915 699 534 548 608 600 595 599 546 605 636 649 629 588 434 509 640 699 665 699 687 615 743 1003 1287 1444 1494 1539 1573 1665 1679 1707 1340 1204 1588 1445 1498 1584 1695 1720 1773 1760 1756 1936 1990 1959 2149 2329 2583 2861 2971 2919 2791 2664 2992 3036 2842 2811 3295 3249 3058
1062 999 944 834 630 560 592 610 604 569 534 489 526 457 567 570 578 609 582 657 670 671 726 671 717 868 1056 1224 1318 1372 1420 1500 1659 1653 1628 1318 1488 1625 1664 1600 1724 1778 1820 1942 1976 1978 2240 2105 2066 2168 2307 2462 2562 2730 2784 2677 2955 3118 2918 2721 2821 3109 3085
1137 1077 974 857 715 557 574 599 579 572 545 515 487 471 448 530 558 647 637 639 633 619 690 741 680 845 973 1084 1170 1235 1269 1328 1471 1683 1792 1663 1660 1746 1837 1817 1833 1952 2044 2067 2126 2138 2204 2287 2194 2150 2867 2307 2309 2482 2668 2644 2744 3062 3035 2843 2764 2777 2745
1167 1178 1095 943 770 533 522 551 567 577 580 570 530 475 432 520 560 653 675 690 660 635 638 758 715 810 984 1036 1105 1155 1210 1248 1288 1599 1759 1808 1977 1970 1930 1982 1955 1995 2085 2207 2242 2228 2155 2190 2223 2220 2206 2259 2271 2336 2607 2637 2620 2850 2968 2921 2878 2852 2794
1063 1137 1111 1011 794 550 493 520 542 523 525 520 497 457 396 440 481 657 695 793 727 680 657 706 761 850 955 1048 1100 1148 1183 1229 1235 1395 1719 1748 1893 2153 2093 2025 2041 2020 2032 2067 2120 2175 2211 2168 2137 2149 2153 2159 2257 2366 2549 2679 2661 2710 2944 2992 2992 2801 2830
1100 1034 977 885 649 434 409 399 423 463 461 464 436 424 387 381 382 567 705 787 805 717 654 675 790 798 915 1030 1116 1190 1185 1214 1244 1266 1538 1748 1734 1857 2081 2155 2133 2091 2043 2046 2063 2090 2159 2208 2220 2204 2134 2039 2380 2414 2573 2751 2788 2661 1956 2097 2374 2562 2778
920 1114 953 897 723 400 270 324 23 374 346 366 406 384 382 401 393 424 699 775 860 792 700 636 810 827 859 978 1082 1173 1231 1226 1239 1248 1336 1571 1723 1711 1719 1855 2039 2187 2280 2293 2263 2030 1964 1988 1982 1992 1969 1770 1700 1918 2210 2252 2352 2150 1860 1872 2110 2014 2286
938 736 956 922 781 677 416 316 514 416 396 19 273 355 389 434 414 431 550 761 873 852 766 689 842 882 868 922 1024 1122 1214 1256 1268 1286 1274 1340 1489 1609 1616 1625 1732 1910 2088 2134 2026 1821 1831 1860 1862 1656 1295 1060 1114 1150 1328 1613 1770 1692 1747 1745 1593 1580 1806
930 715 843 1046 799 848 820 476 426 316 521 441 401 392 411 440 403 465 492 738 867 908 840 765 882 1004 950 921 986 1046 1125 1212 1263 1302 1299 1248 1274 1360 1447 1461 1465 1559 1668 1679 1602 1542 1550 1583 1674 1476 1259 1148 1076 1024 1085 1233 1359 1409 1478 1545 1416 1535 1670
802 604 695 841 919 951 950 807 610 366 378 424 363 448 416 397 413 507 542 701 825 942 920 841 906 1146 1144 1053 1047 1077 1094 1145 1207 1268 1312 1313 1254 1256 1286 1324 1371 1430 1496 1523 1512 1454 1328 1425 1474 1346 1284 1140 861 769 842 914 1024 1110 1169 1328 1436 1350 1489
567 706 511 759 846 910 897 923 719 443 400 396 400 382 426 469 365 518 568 558 788 935 987 931 929 1167 1314 1254 1182 1178 1170 1158 1169 1202 1258 1301 1316 1305 1298 1307 1294 1334 1365 1190 1287 1327 1353 1432 1457 1392 1207 1009 920 858 822 757 711 868 1022 1041 988 1049 1349
600 650 591 528 857 921 817 785 697 536 360 367 363 426 452 482 412 530 552 689 793 896 1025 1039 1011 1171 1354 1396 1340 1288 1278 1242 1200 1212 1238 1268 1304 1322 1338 1348 1325 1289 1282 1312 1364 1347 1364 1374 1364 1328 1272 1157 938 802 695 711 866 1054 1040 980 970 953 1133
545 548 520 560 610 744 914 858 664 579 443 391 457 397 412 451 499 367 394 604 858 900 1086 1177 1150 1196 1348 1440 1436 1407 1396 1362 1323 1303 1301 1312 1333 1334 1312 1292 1275 1270 1275 1287 1308 1266 1272 1315 1338 1360 1329 1242 1027 893 784 746 900 994 1131 1043 793 765 882
405 406 436 468 468 447 651 837 718 592 470 376 442 416 410 420 355 378 340 540 821 986 1123 1306 1314 1285 1334 1429 1476 1477 1469 1472 1480 1496 1522 1498 1494 1462 1430 1362 1284 1208 1204 1223 1224 1156 1251 1300 1309 1321 1290 1192 1180 1143 958 922 1007 1134 1112 872 959 854 1149
443 741 852 898 776 740 616 544 717 746 527 375 453 444 381 316 317 366 352 436 690 965 1146 1302 1411 1379 1354 1391 1444 1484 1490 1512 1530 1579 1606 1578 1526 1465 1463 1444 1442 1338 1245 1207 1180 1208 1254 1292 1302 1290 1186 1208 1208 1130 999 1035 1153 1306 1639 1506 1227 1415 1444
528 691 785 799 758 848 857 839 915 911 617 410 336 396 440 357 357 299 315 362 568 960 1269 1336 1446 1440 1401 1380 1391 1413 1452 1478 1505 1544 1585 1586 1514 1422 1416 1416 1487 1486 1314 1172 1152 1252 1286 1261 1237 1216 1216 1227 1122 1015 978 1151 1257 1234 1352 1583 1666 2097 1710
606 645 693 666 618 622 650 708 730 821 846 689 434 322 298 318 385 338 339 378 429 713 1056 1268 1443 1474 1457 1420 1384 1399 1441 1471 1518 1557 1581 1597 1525 1404 1406 1394 1512 1573 1517 1412 1371 1347 1248 1100 1041 1093 1173 1192 1136 1032 1105 1113 1139 1127 1058 1126 1242 1800 2111
684 728 735 582 545 518 489 461 524 550 654 770 718 476 344 311 370 407 357 335 338 593 920 1207 1359 1484 1484 1450 1421 1434 1444 1484 1540 1550 1541 1545 1509 1367 1384 1422 1516 1574 1508 1449 1398 1258 1041 807 979 1131 1118 859 863 999 1039 1084 1115 1120 1134 1318 1682 2082 2443
840 787 662 556 500 502 446 447 404 398 479 555 713 690 478 536 622 515 524 482 449 644 972 1177 1250 1329 1454 1430 1460 1443 1443 1449 1470 1478 1471 1455 1404 1331 1315 1370 1460 1490 1434 1348 1216 1094 1081 975 1006 970 987 973 892 912 897 1071 1130 1126 1272 1463 1844 2386 2644
700 617 559 448 374 403 439 355 342 320 322 348 485 715 660 643 690 774 728 649 527 537 658 970 1036 1145 1221 1439 1494 1489 1484 1480 1445 1417 1372 1466 1702 1788 1736 1531 1371 1460 1426 1329 1188 1202 1177 1097 1054 1066 1089 1086 1073 1072 995 924 1042 1076 1250 1419 1643 1938 2203
584 510 458 393 363 440 460 388 312 250 298 242 95 155 612 630 540 641 639 699 711 655 558 521 613 887 1028 1228 1426 1495 1546 1540 1485 1410 1404 1679 1982 2184 2207 2062 1834 1759 1614 1464 1378 1308 1224 1193 1176 1204 1241 1214 1206 1162 1123 1112 1097 1094 1124 1313 1513 1636 1754
613 532 463 416 345 332 298 375 346 336 316 260 49 3 4 303 583 483 537 688 735 694 673 572 611 672 645 874 1130 1266 1312 1364 1372 1327 1498 1825 2071 2339 2478 2371 2196 1970 1700 1599 1536 1521 1405 1262 1270 1305 1093 1187 1265 1337 1342 1349 1274 1220 1197 1188 1100 1047 1041
583 535 476 380 351 283 290 371 374 317 32 16 0 0 0 0 0 370 529 530 654 676 690 660 580 600 506 610 832 1054 1121 1096 1043 1063 1590 1988 2076 2143 2280 2263 2293 2124 1995 1886 1792 1711 1670 1606 1449 1418 1298 1160 1369 1410 1392 1372 1351 1265 1212 1177 1128 1009 900
620 506 447 504 511 529 518 458 382 308 24 0 0 0 0 0 0 0 14 357 452 584 672 702 708 665 702 735 890 994 1065 914 905 1034 1432 1781 1958 2016 1986 2088 1973 2035 1802 1864 1893 1860 1712 1572 1478 1527 1579 1512 1402 1372 1329 1221 1150 1078 991 972 954 952 902
423 374 360 424 517 551 480 412 336 280 91 2 0 0 0 0 0 0 0 25 275 392 577 707 702 661 735 812 928 1047 1002 950 913 1163 1337 1381 1625 1806 1606 1605 2000 2022 1951 1880 1754 1666 1381 1375 1503 1607 1487 1588 1510 1149 1120 1017 906 830 875 802 882 895 583
436 285 253 332 467 444 412 346 260 0 0 0 0 0 1 3 0 0 0 2 92 299 430 592 664 634 637 619 676 749 886 1070 1128 1118 1187 1493 1504 1650 1535 1565 1954 2268 2126 2045 1836 1744 1544 1347 1396 1289 1203 1004 844 581 388 411 505 537 612 703 734 830 666
154 130 74 257 383 332 210 0 0 2 2 18 1 0 65 63 104 456 28 2 95 281 383 458 560 660 662 640 597 637 681 714 765 908 1008 1345 1614 1586 1628 1647 1733 1749 1730 1598 1542 1488 1396 1328 1279 1152 1011 773 475 211 27 0 6 101 182 360 486 441 450
73 40 11 196 0 198 186 69 2 1 231 138 8 69 243 318 526 350 17 68 198 332 396 478 590 669 692 611 644 693 746 744 717 786 1160 1376 1400 1628 1517 1477 1431 1408 1349 1378 1434 1454 1409 1230 980 662 351 164 86 26 1 0 0 0 0 0 0 0 0
0 0 0 67 178 363 329 60 1 119 333 38 34 111 280 446 614 463 101 253 383 500 473 490 564 496 637 618 585 676 664 774 815 980 1148 1178 1133 1232 1060 1136 1140 1092 1045 986 989 870 705 417 237 189 130 78 14 0 0 0 0 0 0 0 0 0 0
0 0 0 335 390 92 114 0 0 352 289 125 0 37 211 328 477 626 532 536 493 588 646 595 547 573 684 714 557 621 674 735 794 908 974 785 690 654 456 621 639 703 490 444 387 316 234 123 74 44 6 2 0 0 0 0 0 0 0 0 0 0 0
0 0 0 160 381 396 65 59 122 325 277 88 125 128 171 284 434 592 606 553 542 454 423 478 520 620 446 412 598 600 700 724 940 934 743 416 178 200 270 245 209 242 178 158 211 194 85 7 2 0 0 0 0 0 0 0 0 0 0 0 0 0 0
0 0 0 242 300 334 143 261 348 314 346 178 121 55 42 261 420 433 235 466 475 456 304 336 472 414 571 601 557 495 592 684 562 463 252 183 45 38 67 46 41 46 63 27 12 3 0 0 0 0 0 0 0 0 0 0 0 0 0 0 0 0 0
0 0 0 2 162 268 222 284 330 351 350 247 157 81 60 295 364 109 268 221 310 363 416 471 452 541 558 446 300 246 252 293 256 250 171 72 37 42 38 15 18 14 12 9 3 1 0 0 0 0 0 0 0 0 0 0 0 0 0 0 0 0 0
0 0 0 0 110 264 298 327 416 391 405 305 140 251 254 250 62 208 297 263 328 195 438 421 290 295 330 357 370 204 434 463 289 237 108 44 20 26 21 6 7 4 2 2 0 0 0 0 0 0 0 0 0 0 0 0 0 0 0 0 0 0 0
0 0 0 0 29 177 303 390 462 470 420 342 313 306 301 268 143 28 110 88 51 18 0 0 6 20 25 22 16 10 18 15 12 12 8 24 17 4 1 1 0 0 0 0 0 0 0 0 0 0 0 0 0 0 0 0 0 0 0 0 0 0 0
0 0 0 0 8 115 255 338 464 484 443 349 300 323 114 172 98 65 36 0 0 0 0 0 1 0 0 0 5 12 23 23 24 28 30 22 10 4 0 0 0 0 0 0 0 0 0 0 0 0 0 0 0 0 0 0 0 0 0 0 0 0 0
0 0 0 0 23 58 40 188 379 469 404 339 301 230 143 60 0 0 37 32 24 21 41 35 24 18 18 27 30 38 44 44 48 45 34 27 20 12 3 2 0 0 0 0 0 0 0 0 0 0 0 0 0 0 0 0 0 0 0 0 0 0 0
Wind_Speed
9 8 11 13 12 11 11 10 9 8 8 8 8 8 8 7 7 6 6 5 4 4 4 5 5 8 7 7 7 7 7 6 6 6 8 8 7 7 8 8 7 8 7 7 8 7 8 8 7 7 7 7 7 7 7 6 6 6 6 6 6 6 5
12 10 10 13 12 11 12 12 12 10 9 9 9 9 7 7 7 7 6 6 4 3 3 4 5 7 7 8 8 9 8 8 8 8 8 9 9 8 8 8 7 8 8 8 8 9 8 8 7 7 7 7 7 7 7 6 6 5 5 5 5 5 4
17 14 12 13 14 13 12 16 15 12 10 9 9 10 8 6 7 8 7 7 5 4 4 4 5 6 8 9 10 9 9 9 9 8 7 8 8 8 8 8 8 8 8 8 8 9 8 8 7 7 7 7 7 7 7 6 6 5 5 4 4 3 3
19 16 14 14 16 15 12 15 16 14 11 10 9 11 11 8 7 8 7 7 5 5 4 3 4 6 9 9 9 10 9 10 9 8 8 8 8 8 8 9 9 9 8 8 7 7 8 8 7 7 6 6 6 6 6 6 6 6 5 4 4 3 3
20 20 19 17 17 18 15 15 16 15 12 11 9 12 13 11 8 8 7 6 6 5 3 2 4 6 9 9 10 10 9 9 9 10 10 9 9 8 8 7 7 8 8 8 8 8 8 8 8 7 7 6 7 7 6 6 6 5 5 4 3 3 2
23 22 24 23 21 20 16 13 14 16 15 14 12 12 15 13 9 7 7 7 6 5 5 4 4 6 7 8 9 10 10 10 10 11 10 10 9 8 7 7 7 8 8 8 9 9 8 8 9 8 7 7 7 6 6 5 5 3 2 2 1 1 1
23 24 22 20 24 28 28 23 19 18 20 18 17 16 15 14 10 8 9 8 7 6 7 6 5 6 7 9 8 9 9 9 10 10 11 10 9 8 8 8 8 8 8 9 9 9 9 8 9 8 6 5 6 5 5 5 6 11 13 9 8 4 1
23 23 22 23 27 29 29 33 nan 37 34 29 23 20 15 13 12 11 10 9 8 7 8 8 8 8 8 9 9 7 8 9 10 10 10 9 9 8 8 8 8 8 9 8 9 8 9 8 10 13 16 15 13 11 11 9 9 9 8 7 8 2 3
25 22 21 23 22 20 19 23 25 31 34 nan 30 22 19 16 12 11 11 11 10 9 8 10 9 10 9 9 9 7 8 8 9 10 9 8 9 8 8 9 8 9 8 8 8 10 9 13 16 11 9 8 8 7 7 8 8 9 7 6 7 4 2
30 27 24 23 22 19 20 23 27 31 30 26 29 27 23 18 14 12 11 12 12 9 10 11 12 12 11 10 9 8 8 8 9 8 8 8 8 8 9 9 9 9 8 7 9 8 13 13 10 11 7 9 12 8 5 7 8 9 10 8 6 4 5
29 28 26 23 20 19 21 24 25 26 30 28 30 33 33 25 16 14 11 11 12 11 12 12 13 14 13 12 10 9 9 8 9 8 8 8 9 9 9 9 9 9 8 8 8 9 12 9 10 8 9 9 8 6 5 8 11 11 10 10 7 5 7
28 29 27 24 21 20 19 20 24 27 28 29 30 27 28 30 28 20 15 11 12 13 14 14 15 14 14 13 12 11 10 10 10 10 9 10 10 10 10 10 10 10 10 10 7 10 9 11 8 7 8 10 11 11 11 12 13 12 12 13 11 8 9
25 28 26 24 22 21 22 22 21 23 23 25 31 30 27 29 29 28 22 16 14 14 15 15 16 15 15 14 13 12 11 11 12 13 13 13 13 13 12 11 10 10 10 10 8 10 10 10 8 8 10 10 12 13 13 14 15 14 14 13 13 12 11
25 26 27 27 25 22 19 19 21 21 19 21 28 33 33 28 29 31 28 21 18 16 15 17 16 15 15 14 13 13 12 13 15 16 16 17 16 15 13 12 12 12 12 12 9 10 11 11 10 11 12 12 13 13 16 17 17 16 15 15 15 16 15
24 26 27 28 26 24 21 16 17 21 26 25 25 30 35 34 33 36 36 31 25 20 16 16 16 15 15 15 13 13 15 17 19 20 20 19 18 16 14 13 13 12 13 12 11 12 12 13 14 15 14 14 14 15 18 18 17 18 18 18 18 19 18
24 25 26 27 27 26 23 20 19 20 24 28 26 27 33 36 36 33 31 33 33 24 19 19 16 15 15 14 13 15 18 19 21 21 20 19 17 15 14 13 13 13 13 12 13 14 16 16 16 17 16 16 15 15 16 17 18 18 19 20 21 21 21
20 21 23 25 27 26 23 21 22 22 24 25 27 26 28 34 37 36 33 34 33 27 23 20 18 17 16 15 16 18 20 21 21 21 19 18 16 14 14 13 14 14 13 12 15 16 18 19 19 19 18 18 18 18 17 18 19 18 19 19 19 21 22
18 18 20 23 24 25 24 23 22 22 22 22 23 25 27 32 36 36 33 33 31 28 27 23 20 18 17 18 20 21 21 21 21 21 19 18 16 15 15 16 16 16 15 15 16 18 20 21 20 20 20 20 21 21 20 21 22 22 21 19 18 19 21
18 18 19 20 23 22 21 21 20 20 22 22 20 20 23 30 32 30 32 32 30 32 31 26 23 21 20 21 23 22 22 23 23 21 20 19 18 17 18 18 19 18 19 17 18 20 20 21 22 21 22 23 23 24 26 27 30 26 23 20 19 18 20
18 20 19 21 22 21 19 18 17 17 19 21 21 19 19 23 28 31 34 34 34 35 32 33 31 26 23 25 26 25 26 25 24 23 22 22 21 20 20 21 20 21 22 22 23 21 21 23 25 26 26 26 28 30 30 29 28 27 25 24 23 21 21
19 22 23 23 22 21 18 15 14 14 16 18 21 22 21 20 25 29 32 34 34 31 28 30 29 28 26 27 29 29 28 26 25 24 25 24 23 23 23 24 25 27 29 30 30 30 31 33 34 33 34 33 33 32 32 29 31 29 27 25 24 23 23
21 21 23 22 19 18 15 15 14 13 14 16 nan 19 20 20 23 25 27 30 31 32 30 28 28 29 33 31 30 30 29 28 27 27 27 27 28 29 31 33 35 37 37 36 34 35 36 38 38 37 37 36 36 34 32 30 34 32 32 30 27 25 26
20 20 21 22 20 18 16 17 15 13 14 15 nan nan nan 21 23 23 25 27 29 30 31 30 28 28 33 31 31 31 31 30 30 30 30 32 34 36 39 41 42 40 39 39 37 39 42 42 40 37 38 39 38 36 33 33 34 37 38 36 33 31 31
24 22 21 21 21 19 18 16 16 17 nan nan nan nan nan nan nan 23 23 24 25 25 26 30 30 30 31 33 36 42 46 45 40 36 35 37 40 43 44 43 41 39 39 40 40 42 43 43 43 41 41 41 40 37 37 36 35 39 42 41 39 34 30
27 24 23 23 23 24 21 18 17 16 nan nan nan nan nan nan nan nan nan 22 23 22 21 23 28 34 33 34 40 45 47 49 48 49 48 46 45 45 45 44 42 40 42 44 44 44 43 43 43 43 42 42 40 43 41 39 37 38 42 45 46 39 32
29 29 28 26 26 24 24 24 22 19 nan nan nan nan nan nan nan nan nan nan 22 21 18 20 27 35 42 48 48 46 48 50 50 50 50 47 46 44 45 43 41 43 44 45 44 44 44 45 45 47 44 42 41 39 38 40 39 38 41 46 50 48 40
31 29 28 27 26 27 28 27 25 nan nan nan nan nan nan nan nan nan nan nan nan 20 22 27 34 39 43 49 51 49 50 48 49 51 51 48 44 41 39 39 41 45 44 46 45 45 46 49 50 51 48 45 44 43 42 40 38 39 43 45 49 52 46
30 30 nan 27 28 29 29 nan nan nan nan nan nan nan nan nan 14 18 nan nan nan 24 30 35 38 39 41 45 50 51 51 51 52 53 52 47 44 46 47 47 48 47 47 47 47 48 49 50 51 51 50 47 46 46 nan nan nan 40 42 42 39 44 49
nan nan nan 28 nan 31 31 nan nan nan 29 28 nan nan 21 18 19 21 nan nan 29 35 38 38 39 41 41 42 46 49 53 56 56 54 52 49 47 49 49 47 50 50 50 50 50 51 51 49 49 51 51 49 nan nan nan nan nan nan nan nan nan nan nan
nan nan nan nan 30 31 31 nan nan 30 31 nan nan 25 25 23 23 25 28 28 31 34 39 41 41 43 44 44 45 48 54 58 58 56 56 54 53 52 51 50 51 52 51 51 53 52 51 50 50 51 51 nan nan nan nan nan nan nan nan nan nan nan nan
nan nan nan 28 31 nan 32 nan nan 29 31 30 nan nan 26 24 24 25 27 24 26 25 29 36 40 41 40 43 46 50 56 62 62 61 59 57 54 54 52 52 52 53 52 55 56 54 52 50 nan nan nan nan nan nan nan nan nan nan nan nan nan nan nan
nan nan nan 26 29 31 nan nan 30 30 30 nan 27 26 25 24 22 23 23 27 31 29 27 31 35 35 34 35 36 40 47 56 60 61 59 58 56 54 51 52 51 52 52 53 54 53 nan nan nan nan nan nan nan nan nan nan nan nan nan nan nan nan nan
nan nan nan 23 26 29 32 32 32 31 29 28 25 nan nan 24 21 19 22 25 27 28 29 31 33 33 33 34 33 34 38 43 47 52 54 56 nan nan nan nan nan nan nan nan nan nan nan nan nan nan nan nan nan nan nan nan nan nan nan nan nan nan nan
nan nan nan nan 24 28 32 34 34 32 30 27 24 nan nan 25 23 21 22 20 20 21 25 28 27 27 30 34 33 32 35 38 45 47 48 nan nan nan nan nan nan nan nan nan nan nan nan nan nan nan nan nan nan nan nan nan nan nan nan nan nan nan nan
nan nan nan nan 22 25 31 33 34 32 31 27 24 24 26 27 nan 23 20 18 17 18 21 22 25 28 31 32 31 29 31 35 35 36 39 nan nan nan nan nan nan nan nan nan nan nan nan nan nan nan nan nan nan nan nan nan nan nan nan nan nan nan nan
nan nan nan nan nan 23 27 29 30 31 31 28 26 26 27 27 26 nan 23 nan nan nan nan nan nan nan nan nan nan nan nan nan nan nan nan nan nan nan nan nan nan nan nan nan nan nan nan nan nan nan nan nan nan nan nan nan nan nan nan nan nan nan nan
nan nan nan nan nan 21 23 25 26 28 30 28 28 27 26 24 nan nan nan nan nan nan nan nan nan nan nan nan nan nan nan nan nan nan nan nan nan nan nan nan nan nan nan nan nan nan nan nan nan nan nan nan nan nan nan nan nan nan nan nan nan nan nan
nan nan nan nan nan nan nan 22 24 26 27 27 27 26 23 nan nan nan nan nan nan nan nan nan nan nan nan nan nan nan nan nan nan nan nan nan nan nan nan nan nan nan nan nan nan nan nan nan nan nan nan nan nan nan nan nan nan nan nan nan nan nan nan
Wind_Direction
263 259 257 264 261 241 236 249 269 277 281 278 281 295 302 298 294 273 255 253 249 226 204 201 193 186 172 162 156 158 157 161 154 138 133 131 131 128 123 128 127 127 132 130 131 130 133 144 144 145 151 144 143 145 140 143 146 148 157 167 173 171 170
250 250 255 260 262 249 235 239 248 257 266 271 273 287 287 302 293 282 268 260 259 260 223 202 196 186 181 176 170 167 164 160 160 155 146 140 138 133 127 125 123 121 127 128 132 135 142 135 139 142 143 146 139 141 138 140 145 149 158 167 171 165 174
243 236 236 247 257 251 235 231 239 250 262 264 270 273 281 290 293 298 279 262 260 245 226 207 194 187 186 187 185 168 165 171 171 164 156 142 137 135 139 139 134 132 130 140 139 133 142 134 140 142 143 141 138 139 141 148 154 156 158 168 174 163 160
256 252 241 235 246 249 240 230 239 245 254 272 280 281 277 281 283 291 285 276 273 257 251 216 206 196 190 191 187 178 171 172 171 169 164 160 151 159 161 156 153 154 152 147 144 145 145 146 145 151 147 150 146 150 160 156 161 165 157 171 168 169 175
251 257 251 243 243 247 237 225 230 239 246 255 263 273 276 274 279 275 273 274 275 281 283 272 219 209 197 194 191 186 178 174 173 176 177 174 173 178 176 167 166 159 154 160 165 163 163 167 167 167 165 170 165 171 169 179 173 166 167 185 164 180 171
250 251 250 238 234 245 244 228 228 235 241 243 244 251 261 270 268 278 279 275 261 250 254 251 237 225 210 199 195 190 190 184 184 184 186 186 185 184 183 180 181 176 172 162 174 175 175 177 182 187 182 183 183 184 189 195 186 179 176 222 219 162 157
239 245 242 239 236 230 218 208 207 224 229 232 232 236 247 262 273 272 264 267 267 265 251 243 236 232 218 211 200 197 192 189 191 188 193 192 189 187 186 190 193 189 179 185 177 185 185 184 187 194 189 189 198 200 209 214 209 217 213 205 201 174 295
238 241 242 226 228 240 233 213 nan 200 202 213 230 228 237 249 258 263 267 263 262 258 248 251 240 230 224 217 209 203 198 192 193 194 198 194 192 186 187 192 196 194 194 185 181 191 190 182 193 203 206 217 222 222 228 234 250 262 268 274 284 198 186
230 234 245 250 248 242 243 243 232 223 213 nan 203 225 234 234 242 258 269 263 256 261 257 251 246 237 233 226 219 210 204 200 197 198 197 193 190 182 184 189 193 202 199 193 192 204 200 212 234 242 249 245 247 250 249 250 243 247 254 244 248 254 250
236 227 232 242 256 251 243 240 234 232 232 216 209 207 226 232 227 234 248 262 258 263 264 255 243 240 237 231 228 223 216 210 204 203 199 195 190 185 188 191 193 206 204 203 215 219 229 249 246 241 235 229 221 215 252 279 282 277 280 278 282 296 287
246 237 227 233 248 256 251 247 244 241 236 227 218 215 209 214 228 226 226 247 259 255 259 257 248 245 241 238 236 230 227 221 217 212 210 204 202 195 198 198 199 207 209 214 220 232 256 250 253 255 255 253 259 254 246 254 261 264 266 271 271 271 269
242 242 238 230 227 238 254 257 255 251 246 232 225 228 230 221 206 215 217 219 241 251 250 251 248 247 247 244 241 234 233 232 227 222 220 217 212 210 208 206 206 207 212 221 219 237 255 261 254 261 265 266 261 262 262 263 264 265 262 263 269 271 271
243 246 246 244 236 223 226 242 253 258 254 237 224 223 228 232 229 219 211 205 219 238 249 250 250 249 248 248 246 240 238 238 235 230 226 223 219 217 215 213 212 213 216 225 227 251 255 261 272 259 263 264 262 261 267 267 267 272 274 272 273 280 277
239 243 244 244 243 241 239 232 231 239 252 244 230 227 226 226 227 232 228 210 210 225 239 244 248 252 255 254 251 248 245 240 239 236 233 227 224 222 220 219 221 223 225 232 235 253 259 266 271 267 265 267 265 262 262 268 272 275 276 274 277 281 284
240 239 240 245 242 238 236 240 244 236 225 225 235 236 234 230 225 225 228 228 216 216 227 242 247 252 257 259 261 261 255 247 241 238 237 235 233 230 227 228 230 233 235 237 242 251 259 262 265 267 266 262 263 259 259 268 276 277 278 277 278 278 281
239 236 237 239 244 240 235 230 224 231 240 237 232 234 233 228 227 224 228 235 232 218 221 234 241 245 247 253 258 257 256 255 250 247 246 246 245 243 242 241 243 246 248 248 252 254 259 261 263 268 272 272 269 264 262 263 267 279 294 287 278 278 277
238 236 236 239 243 240 238 233 230 233 239 242 239 233 232 229 228 227 223 230 240 234 226 234 240 242 245 245 244 247 251 255 256 257 260 260 259 255 254 254 252 253 256 257 258 261 262 264 268 268 268 274 275 273 267 264 265 283 290 290 287 278 277
243 238 234 239 243 244 238 234 232 235 241 240 238 237 232 233 233 229 222 222 227 238 241 239 240 245 244 241 241 243 247 250 253 256 258 259 260 258 254 252 251 251 253 254 257 260 262 266 269 269 268 269 270 269 267 265 262 272 270 272 278 280 280
249 240 241 243 242 240 237 233 234 232 231 240 242 238 233 232 233 234 226 220 222 228 236 243 243 242 241 242 243 244 246 247 248 250 250 250 249 248 248 251 251 251 250 254 256 259 265 268 266 266 265 266 269 266 258 257 248 247 249 252 257 269 275
251 249 245 241 238 236 233 231 232 229 229 231 237 243 239 237 235 228 222 221 224 230 232 235 230 229 240 243 243 244 246 248 250 249 248 247 246 246 247 247 250 250 250 250 251 256 260 260 260 256 255 255 255 255 253 255 245 245 248 251 252 254 262
244 240 238 234 232 232 229 227 226 226 225 229 234 240 243 235 231 231 231 230 228 232 240 242 243 236 234 241 244 245 246 249 252 252 249 249 250 249 248 248 246 247 245 244 243 241 240 242 247 249 249 248 250 252 251 250 240 246 249 253 256 258 263
241 238 238 235 232 231 233 232 233 232 229 235 nan 235 239 237 235 235 235 238 239 235 236 241 243 241 238 235 242 246 249 252 251 249 249 251 250 250 247 244 244 243 243 244 245 247 246 241 241 243 247 249 249 252 252 251 243 246 249 252 257 268 270
243 237 237 233 233 233 235 234 235 238 238 234 nan nan nan 234 235 237 241 244 246 246 241 239 242 246 247 242 235 239 245 251 252 247 246 247 249 247 247 248 248 247 248 248 245 243 242 244 244 246 249 251 252 254 254 252 246 249 250 250 249 262 267
244 238 234 234 232 233 232 235 239 237 nan nan nan nan nan nan nan 238 242 245 248 251 246 242 242 243 245 247 245 240 235 228 230 238 246 247 248 248 248 250 249 251 253 254 250 246 247 248 247 244 246 248 251 253 257 255 247 249 254 254 252 255 264
243 236 232 231 231 230 227 229 235 235 nan nan nan nan nan nan nan nan nan 248 251 248 251 254 252 250 249 246 244 244 247 247 239 228 228 232 240 250 252 251 250 247 247 250 251 249 249 251 253 253 252 252 252 253 255 255 251 247 253 256 255 257 259
242 235 232 232 235 231 227 229 231 233 nan nan nan nan nan nan nan nan nan nan 253 255 249 249 253 249 244 238 236 237 243 250 250 244 240 237 231 235 245 243 243 245 246 247 249 249 249 251 254 257 257 255 253 252 252 255 256 253 249 254 255 255 258
242 236 232 229 229 229 230 230 232 nan nan nan nan nan nan nan nan nan nan nan nan 263 258 246 242 246 247 248 246 243 240 241 249 251 248 242 240 244 250 247 244 247 250 251 249 250 250 251 253 255 256 254 252 251 252 255 255 254 253 254 258 258 257
244 237 nan 228 227 231 231 nan nan nan nan nan nan nan nan nan 279 282 nan nan nan 267 254 250 247 245 249 252 252 249 246 245 245 248 247 242 238 239 241 242 245 249 251 250 250 250 251 253 255 257 257 257 256 254 nan nan nan 260 253 250 252 259 263
nan nan nan 226 nan 226 231 nan nan nan 234 236 nan nan 244 246 262 276 nan nan 278 266 258 254 250 249 250 254 256 255 251 246 246 247 247 244 242 245 246 246 248 249 251 254 253 252 253 256 259 259 256 255 nan nan nan nan nan nan nan nan nan nan nan
nan nan nan nan 226 226 229 nan nan 235 236 nan nan 241 246 248 255 259 266 270 270 266 259 254 250 249 250 252 253 253 252 251 249 249 247 245 245 247 249 248 249 249 250 253 256 257 257 259 260 258 255 nan nan nan nan nan nan nan nan nan nan nan nan
nan nan nan 230 225 nan 227 nan nan 234 234 235 nan nan 243 247 252 255 256 257 261 261 260 256 253 251 251 254 257 257 255 252 251 251 249 245 246 249 249 248 250 251 251 253 256 258 260 261 nan nan nan nan nan nan nan nan nan nan nan nan nan nan nan
nan nan nan 234 229 226 nan nan 231 232 230 nan 228 233 238 243 247 254 258 252 251 256 258 254 249 250 254 256 256 254 254 252 250 250 250 248 246 248 249 251 252 253 251 252 255 257 nan nan nan nan nan nan nan nan nan nan nan nan nan nan nan nan nan
nan nan nan 241 232 230 228 228 230 231 229 226 224 nan nan 239 239 241 253 256 256 259 256 246 244 248 253 257 255 251 250 251 250 250 249 249 nan nan nan nan nan nan nan nan nan nan nan nan nan nan nan nan nan nan nan nan nan nan nan nan nan nan nan
nan nan nan nan 239 235 233 233 235 235 233 228 222 nan nan 240 235 234 243 248 255 257 251 244 243 249 256 259 258 254 253 254 254 250 246 nan nan nan nan nan nan nan nan nan nan nan nan nan nan nan nan nan nan nan nan nan nan nan nan nan nan nan nan
nan nan nan nan 246 241 239 238 238 237 235 229 222 227 236 235 nan 227 231 241 244 247 246 237 236 238 238 243 249 250 249 248 243 238 238 nan nan nan nan nan nan nan nan nan nan nan nan nan nan nan nan nan nan nan nan nan nan nan nan nan nan nan nan
nan nan nan nan nan 248 246 241 239 239 236 230 226 227 228 231 231 nan 230 nan nan nan nan nan nan nan nan nan nan nan nan nan nan nan nan nan nan nan nan nan nan nan nan nan nan nan nan nan nan nan nan nan nan nan nan nan nan nan nan nan nan nan nan
nan nan nan nan nan 251 249 244 240 240 238 234 234 231 225 225 nan nan nan nan nan nan nan nan nan nan nan nan nan nan nan nan nan nan nan nan nan nan nan nan nan nan nan nan nan nan nan nan nan nan nan nan nan nan nan nan nan nan nan nan nan nan nan
nan nan nan nan nan nan nan 243 242 241 238 235 235 232 224 nan nan nan nan nan nan nan nan nan nan nan nan nan nan nan nan nan nan nan nan nan nan nan nan nan nan nan nan nan nan nan nan nan nan nan nan nan nan nan nan nan nan nan nan nan nan nan nan